TimeEST,TemperatureF,Dew PointF,Humidity,Sea Level PressureIn,VisibilityMPH,Wind Direction,Wind SpeedMPH,Gust SpeedMPH,PrecipitationIn,Events,Conditions,WindDirDegrees,DateUTC
12:54 AM,41.0,26.1,55,29.94,10.0,SW,11.5,-,N/A,,Overcast,220,2013-02-05 05:54:00
1:54 AM,41.0,27.0,57,29.94,10.0,WSW,5.8,-,N/A,,Overcast,240,2013-02-05 06:54:00
2:54 AM,41.0,27.0,57,29.92,10.0,SSW,3.5,-,N/A,,Overcast,200,2013-02-05 07:54:00
3:54 AM,44.1,24.1,45,29.91,10.0,WSW,5.8,-,N/A,,Overcast,250,2013-02-05 08:54:00
4:54 AM,44.1,25.0,47,29.91,10.0,WSW,8.1,-,N/A,,Overcast,240,2013-02-05 09:54:00
5:54 AM,42.1,25.0,51,29.91,10.0,SW,6.9,-,N/A,,Mostly Cloudy,230,2013-02-05 10:54:00
6:54 AM,42.1,26.1,53,29.91,10.0,WSW,5.8,-,N/A,,Overcast,240,2013-02-05 11:54:00
7:54 AM,43.0,27.0,53,29.92,10.0,SSW,6.9,-,N/A,,Overcast,210,2013-02-05 12:54:00
8:54 AM,44.1,28.0,53,29.93,10.0,SW,4.6,-,N/A,,Overcast,220,2013-02-05 13:54:00
9:54 AM,46.9,28.0,48,29.92,10.0,WSW,5.8,-,N/A,,Overcast,250,2013-02-05 14:54:00
10:54 AM,46.0,32.0,58,29.94,10.0,South,5.8,-,0.00,Rain,Light Rain,190,2013-02-05 15:54:00
11:54 AM,45.0,34.0,65,29.93,10.0,SSW,6.9,-,0.00,,Overcast,210,2013-02-05 16:54:00
12:54 PM,50.0,28.9,44,29.88,10.0,NW,10.4,-,N/A,,Overcast,310,2013-02-05 17:54:00
1:54 PM,48.9,28.0,44,29.86,10.0,West,6.9,-,N/A,,Overcast,280,2013-02-05 18:54:00
2:54 PM,46.9,28.9,50,29.86,10.0,Variable,3.5,-,N/A,,Overcast,0,2013-02-05 19:54:00
3:54 PM,46.9,28.9,50,29.86,10.0,Calm,Calm,-,N/A,,Overcast,0,2013-02-05 20:54:00
4:54 PM,46.0,28.9,51,29.87,10.0,NW,3.5,-,N/A,,Overcast,310,2013-02-05 21:54:00
5:54 PM,43.0,28.9,58,29.88,10.0,Calm,Calm,-,N/A,,Partly Cloudy,0,2013-02-05 22:54:00
6:54 PM,39.9,28.9,65,29.88,10.0,SSE,3.5,-,N/A,,Clear,160,2013-02-05 23:54:00
7:54 PM,39.9,30.0,68,29.89,10.0,Calm,Calm,-,N/A,,Scattered Clouds,0,2013-02-06 00:54:00
8:54 PM,39.0,30.0,70,29.88,10.0,Calm,Calm,-,N/A,,Partly Cloudy,0,2013-02-06 01:54:00
9:54 PM,37.9,30.0,73,29.91,10.0,Calm,Calm,-,N/A,,Clear,0,2013-02-06 02:54:00
10:54 PM,35.1,28.0,76,29.90,10.0,Calm,Calm,-,N/A,,Clear,0,2013-02-06 03:54:00
11:54 PM,39.9,30.9,70,29.91,10.0,West,3.5,-,N/A,,Scattered Clouds,270,2013-02-06 04:54:00